Home   Weather   Dubai   Past weeks

Flag for United Arab Emirates Past Weather in Dubai, Dubai, United Arab Emirates — Yesterday and Last 2 Weeks

Now
79 °F

Clear.


Feels Like: 82 °F
Forecast: 77 / 87 °F
Wind: 3 mph from Southwest

Location: Dubai International Airport

Current Time: Dec 5, 2016 at 12:18:57 am

Latest Report: Dec 5, 2016 at 12:00 am


Visibility: 4 mi

Pressure: 30.04 "Hg

Humidity: 79%

Dew Point: 72 °F

Location of DubaiLocation

Past Weather in Dubai — Graph

°F

Dubai Temperature Yesterday

Maximum temperature yesterday: 86 °F (at 12:00 pm)
Minimum temperature yesterday: 72 °F (at 6:00 am)
Average temperature yesterday: 79 °F

High & Low Weather Summary for the Past Weeks

 TemperatureHumidityPressure
High88 °F (Nov 22, 1:00 pm)100% (Dec 3, 8:00 am)30.15 "Hg (Dec 3, 8:00 am)
Low70 °F (Nov 30, 7:00 am)29% (Nov 24, 3:00 pm)29.86 "Hg (Nov 20, 2:00 pm)
Average78 °F58%30.02 "Hg
* Reported Nov 19 11:00 pm — Dec 4 11:00 pm, Dubai, Weather by CustomWeather, © 2016

Note: Actual official high and low records may vary slightly from our data, if they occured in-between our weather recording intervals... More about our weather records

Advertising

Dubai Weather History for the Previous 24 Hours

Scroll right to see more
 ConditionsComfort  
Time TempWeatherWind HumidityBarometerVisibility
11:00 pm
Sun, Dec 4
79 °FClear.3 mph79%30.04 "Hg4 mi
10:00 pm81 °FClear.2 mph74%30.07 "Hg4 mi
9:00 pm81 °FClear.1 mph74%30.07 "Hg5 mi
8:00 pm81 °FPassing clouds.6 mph74%30.07 "HgN/A
7:00 pm81 °FClear.7 mph74%30.04 "Hg10 mi
6:00 pm82 °FClear.8 mph66%30.04 "Hg10 mi
5:00 pm84 °FPassing clouds.7 mph58%30.04 "HgN/A
4:00 pm84 °FSunny.12 mph62%30.01 "Hg10 mi
3:00 pm86 °FPassing clouds.9 mph55%30.01 "HgN/A
2:00 pm86 °FPassing clouds.9 mph52%30.04 "HgN/A
1:00 pm86 °FSunny.10 mph55%30.04 "Hg10 mi
12:00 pm86 °FPassing clouds.9 mph52%30.07 "HgN/A
11:00 am84 °FClear.3 mph62%30.09 "Hg5 mi
10:00 am81 °FClear.6 mph70%30.12 "Hg5 mi
9:00 am77 °FClear.7 mph74%30.12 "Hg4 mi
8:00 am73 °FClear.6 mph78%30.09 "Hg4 mi
7:00 am72 °FHaze.6 mph78%30.09 "Hg3 mi
6:00 am72 °FHaze.5 mph83%30.09 "Hg3 mi
5:00 am73 °FClear.5 mph74%30.07 "Hg4 mi
4:00 am73 °FClear.5 mph74%30.07 "Hg4 mi
3:00 am75 °FClear.5 mph74%30.07 "Hg4 mi
2:00 am73 °FClear.5 mph78%30.07 "Hg4 mi
1:00 am77 °FClear.3 mph74%30.09 "Hg5 mi
12:00 am81 °FClear.6 mph70%30.09 "Hg10 mi
Weather by CustomWeather, © 2016

See weather overviewHow to use our weather pages